Weather Roundup
Issued by NWS Springfield, MO

Home | Current Version | Previous Version | Text Only | Print | Product List | Glossary On
Versions: 1 2 3 4 5 6 7 8 9 10 11 12 13 14 15 16 17 18 19 20 21 22 23 24 25 26 27 28 29 30 31 32 33 34 35 36 37 38 39 40 41 42 43 44 45 46 47 48 49 50
000
NZUS99 KSGF 262307
HRRSGF

HOURLY WEATHER
NATIONAL WEATHER SERVICE SPRINGFIELD MO
500 PM CST MON JAN 26 2015

......SGF CWA......

CITY           SKY/WX    TMP DP  RH WIND       PRES   REMARKS
SPRINGFIELD    CLEAR     55  35  47 W16       29.92S
JOPLIN         CLEAR     58  35  42 W8        29.97R
WEST PLAINS    CLEAR     53  31  42 W13G21    29.89R
ROLLA          CLEAR     50  34  54 W14       29.86R
OSAGE BEACH    CLEAR     55  34  44 W12G17    29.89R
BRANSON        CLEAR     57  32  38 W17G23    29.94S

......SURROUNDING SGF CWA......

CITY           SKY/WX    TMP DP  RH WIND       PRES   REMARKS
CHANUTE        CLEAR     64  36  35 NW15      29.97R
PARSONS        CLEAR     67  37  33 NW13      29.98R
COFFEYVILLE    CLEAR     67  37  33 NW13      29.97R
EMPORIA        CLEAR     64  34  32 NW13G21   29.96S
GROVE OK       CLEAR     61  34  36 W6        30.00R
ROGERS AR      CLEAR     57  34  41 W12       29.98R
SILOAM SPRINGS CLEAR     57  34  41 W9        30.00S
HARRISON AR    CLEAR     58  33  39 W8        29.93S
NEAR YELLVILLE CLEAR     61  32  33 W10G16    29.91R

......KANSAS AND MISSOURI......

CITY           SKY/WX    TMP DP  RH WIND       PRES   REMARKS
KANSAS CTY INT PTCLDY    58  33  39 N14G22    29.93R
DOWNTOWN KC    CLEAR     61  33  35 NW9       29.92R
COLUMBIA       CLEAR     51  36  56 W13G21    29.89R
SEDALIA        CLEAR     53  37  54 NW8       29.91R
ST JOSEPH      CLEAR     57  33  40 N13       29.94R
ST LOUIS       PTCLDY    38  29  70 SE8       29.89S WCI  32
SPIRIT OF STL  PTCLDY    42  32  67 CALM      29.88S
KIRKSVILLE     CLEAR     50  36  58 NW12      29.87R
WICHITA        CLEAR     71  33  24 N12       29.99R
TOPEKA         CLEAR     64  30  27 NW13      29.95R
OLATHE         CLEAR     61  33  35 N9G16     29.93R

......TENNESSEE......

CITY           SKY/WX    TMP DP  RH WIND       PRES   REMARKS
MEMPHIS        PTCLDY    48  31  51 SW9       29.95F
NASHVILLE      CLOUDY    36  28  73 NW6       29.98R WCI  31

......ARKANSAS.......

CITY           SKY/WX    TMP DP  RH WIND       PRES   REMARKS
FAYETTEVILLE   CLEAR     55  34  45 W9        29.98F
FT SMITH       CLEAR     61  34  36 W9        29.99S
LITTLE ROCK    PTCLDY    59  30  33 SW9       29.97S

......OKLAHOMA.......

CITY           SKY/WX    TMP DP  RH WIND       PRES   REMARKS
TULSA          PTCLDY    68  36  30 W9        29.98R
PONCA CITY     CLEAR     72  35  25 NW13      30.00R
MCALESTER      CLEAR     71  35  26 W10       30.01S
OKLAHOMA CITY  PTCLDY    74  31  20 NW16      30.04R

......IOWA............

CITY           SKY/WX    TMP DP  RH WIND       PRES   REMARKS
DES MOINES     PTCLDY    50  37  61 NW22      29.86R
QUAD CITIES    MOCLDY    31  27  85 SW3       29.82S FOG

......ILLINOIS........

CITY           SKY/WX    TMP DP  RH WIND       PRES   REMARKS
QUINCY         CLEAR     39  33  79 S5        29.85R
CHICAGO        LGT SNOW  25  21  85 S6        29.87R FOG     WCI  18



USA.gov is the U.S. government's official web portal to all federal, state and local government web resources and services.